Lid_Strength_Index
-0 -1 -0 -1 0 0 3 6 12 7 5 13 13 14 12 10 10 9 12 10 12 13 12 13 13 13 12 10 11 13 12 14 16 15 13 11 10 12 12 15 17 15 17 15
-0 -1 -0 -0 -0 0 4 9 11 7 6 14 14 12 12 10 11 11 11 11 11 10 12 14 12 12 10 9 10 11 12 14 17 16 13 13 13 12 11 12 13 15 16 14
-0 -0 -0 -0 -0 0 3 8 12 12 9 12 13 14 13 13 9 11 11 11 10 11 12 12 13 13 12 10 9 9 10 13 14 16 15 12 14 12 11 11 14 14 14 12
-0 -0 -0 -0 -0 0 3 7 12 12 14 13 12 12 13 13 13 11 10 12 11 11 13 13 13 13 12 10 9 10 10 13 13 13 13 12 12 12 12 12 12 14 13 13
-0 -0 -0 -0 -0 1 6 8 10 11 12 11 11 13 13 13 12 12 12 11 10 10 12 11 14 12 12 12 11 10 11 13 13 15 13 12 13 12 12 12 12 12 12 12
-0 -0 -0 -0 -0 2 6 5 6 9 12 12 12 13 13 11 11 10 10 10 10 11 10 9 9 9 10 10 11 11 11 13 14 15 14 13 15 14 13 12 11 11 13 11
-0 -0 -0 -0 0 3 5 6 6 9 13 12 11 11 11 12 10 11 11 9 10 10 8 8 8 10 10 9 9 9 12 12 13 16 14 18 13 10 10 11 10 10 10 10
-0 -0 -0 -0 0 1 4 5 6 9 13 13 12 11 11 10 10 11 11 11 10 8 9 12 13 13 13 14 12 11 10 11 14 16 16 13 13 13 12 12 12 10 10 9
-0 -0 -0 -0 0 1 3 5 5 7 11 13 12 12 11 12 13 12 13 10 9 8 11 12 15 16 15 16 14 13 11 10 12 17 17 18 12 11 10 9 14 8 9 9
0 -0 -0 -0 -0 1 3 5 5 6 10 10 12 12 12 11 11 13 12 12 11 10 12 14 14 15 13 16 17 15 14 13 15 15 15 14 11 11 9 14 12 9 9 8
-0 -0 -0 -0 -0 1 3 5 5 6 9 10 11 11 12 12 11 12 12 11 11 12 13 13 14 14 15 14 14 14 14 14 15 14 15 17 11 12 12 9 9 9 10 10
-1 -0 -0 -0 -0 1 2 5 4 5 8 10 9 10 10 10 11 11 12 11 12 9 12 12 13 15 15 14 16 13 14 11 13 12 12 11 11 10 10 10 10 9 9 9
-1 -0 -0 -0 -0 1 2 5 6 6 9 9 9 11 10 10 10 9 11 12 10 10 9 11 13 14 14 15 14 13 12 11 12 12 12 12 11 12 11 11 11 11 10 10
-1 -1 -0 -0 0 1 3 6 6 7 9 11 11 8 10 10 9 8 8 10 10 10 10 12 13 13 13 14 13 12 11 11 13 13 13 12 12 11 11 12 11 11 12 12
-1 -0 -0 -0 0 2 3 4 4 6 8 12 11 10 9 9 8 9 9 9 11 12 12 12 13 13 14 15 14 14 12 12 12 12 11 10 12 11 11 11 12 12 12 13
-1 -1 -0 1 2 4 4 7 5 4 7 10 13 11 11 10 10 10 10 10 11 11 12 13 12 12 13 13 13 14 11 10 9 11 10 11 11 11 11 12 12 12 13 13
-1 -0 -0 0 1 3 7 9 6 4 6 11 13 13 10 10 11 12 12 11 12 11 12 13 13 13 13 14 14 14 11 10 10 10 10 12 11 13 12 13 14 15 16 16
-0 -0 0 1 1 3 7 6 4 6 9 11 15 14 12 10 12 12 12 12 12 13 13 12 13 13 14 15 15 15 15 13 13 14 12 10 13 13 15 14 14 15 16 16
1 2 3 5 8 9 8 4 6 7 9 14 16 16 15 10 12 12 12 13 15 13 14 14 14 16 18 20 19 19 20 18 16 15 15 14 15 16 16 16 16 16 18 18
3 6 10 11 9 5 6 11 12 14 16 14 17 19 15 12 13 14 13 15 17 16 16 14 16 19 21 22 23 23 22 22 20 15 16 17 18 18 19 20 20 20 20 21
10 12 11 9 7 10 15 17 16 18 17 18 17 17 14 12 14 15 15 16 18 18 17 16 18 18 21 23 25 25 25 23 24 22 21 21 20 19 21 23 24 25 25 26
11 11 12 13 16 16 17 21 20 19 19 20 18 15 13 13 13 13 15 17 18 19 19 17 19 21 27 27 27 28 28 27 27 26 25 25 26 25 25 26 27 27 28 29
12 15 18 16 19 20 22 24 20 19 21 21 20 16 13 12 13 16 15 18 19 19 19 19 20 26 29 30 29 28 29 28 29 29 28 28 28 29 28 29 30 29 30 32
18 20 22 22 23 23 23 22 22 20 20 21 21 19 14 13 14 16 17 19 19 20 21 20 25 30 31 31 31 30 31 31 31 31 30 30 30 30 31 32 33 32 31 32
20 20 24 24 24 25 24 25 24 22 22 21 19 17 14 13 14 17 19 20 20 20 19 23 28 31 31 31 32 32 32 33 32 32 32 32 32 32 31 33 33 33 32 31
24 26 24 26 24 24 26 26 25 23 23 22 20 17 16 15 15 18 20 20 21 19 26 30 30 31 32 33 32 32 33 32 32 32 32 31 32 33 32 32 32 33 32 32
26 29 37 31 29 26 27 29 25 22 24 22 21 19 18 17 19 20 20 19 23 29 30 31 31 31 32 34 34 33 34 33 32 32 31 31 32 32 30 29 30 32 31 33